Birmingham, AL

4:41 AM CDT on August 22, 2017 (GMT -0500)
Birmingham International

Weather History for KBHM - October, 2013

Change the Weather History Date:

Friday, October 4, 2013

  Actual Average Record
Temperature  
Mean Temperature 77 °F 68 °F  
Max Temperature 87 °F 79 °F 92 °F (1925)
Min Temperature 66 °F 57 °F 35 °F (1987)
Degree Days  
Heating Degree Days 0 2  
Month to date heating degree days 0 6  
Since 1 July heating degree days 0 15  
Cooling Degree Days 12 5  
Month to date cooling degree days 40 20  
Year to date cooling degree days 1883 1970  
Growing Degree Days 26 (Base 50)    
Moisture  
Dew Point 64 °F    
Average Humidity 68    
Maximum Humidity 87    
Minimum Humidity 48    
Precipitation  
Precipitation 0.00 in 0.12 in 3.02 in (1995)
Month to date precipitation T 0.48  
Year to date precipitation 54.73 41.46  
Snow  
Snow 0.00 in 0.00 in - ()
Month to date snowfall 0.0 0.0  
Since 1 July snowfall 0.0 0.0  
Since 1 September snowfall 0.0 0.0  
Snow Depth 0.00 in    
Sea Level Pressure  
Sea Level Pressure 30.09 in    
Wind  
Wind Speed 3 mph (ESE)    
Max Wind Speed 12 mph    
Max Gust Speed 15 mph    
Visibility 10 miles    
Events      
T = Trace of Precipitation, MM = Missing Value Source: NWS Daily Summary

Daily Weather History Graph

Daily Weather History Graph

Search for Another Location

Airport or City:

Trip Planner

Search our weather history database for the weather conditions in past years. The results will help you decide how hot, cold, wet, or windy it might be!

Date:

Astronomy

Oct. 04, 2013 Rise Set
Actual Time 6:43 AM CDT 6:27 PM CDT
Civil Twilight 6:18 AM CDT 6:51 PM CDT
Nautical Twilight 5:49 AM CDT 7:20 PM CDT
Astronomical Twilight 5:21 AM CDT 7:49 PM CDT
Moon 6:18 AM CDT (10/4) 6:11 PM CDT (10/4)
Length of Visible Light 12h 33m
Length of Day
11h 43m
Waning Crescent, 0% of the Moon is Illuminated
Oct 4
Waning Crescent
Oct 4
New
Oct 11
First Quarter
Oct 18
Full
Oct 26
Last Quarter

Hourly Weather History & Observations

Time (CDT) Temp. Heat Index Dew Point Humidity Pressure Visibility Wind Dir Wind Speed Gust Speed Precip Events Conditions
12:53 AM 69.1 °F - 61.0 °F 75% 30.09 in 10.0 mi Calm Calm - N/A   Overcast
1:53 AM 69.1 °F - 61.0 °F 75% 30.09 in 10.0 mi NNE 3.5 mph - N/A   Mostly Cloudy
2:53 AM 71.1 °F - 61.0 °F 70% 30.07 in 10.0 mi Calm Calm - N/A   Overcast
3:53 AM 71.1 °F - 61.0 °F 70% 30.07 in 10.0 mi Calm Calm - N/A   Scattered Clouds
4:53 AM 66.9 °F - 61.0 °F 81% 30.08 in 10.0 mi Calm Calm - N/A   Clear
5:53 AM 66.0 °F - 62.1 °F 87% 30.09 in 10.0 mi Calm Calm - N/A   Clear
6:53 AM 66.0 °F - 61.0 °F 84% 30.11 in 10.0 mi Calm Calm - N/A   Partly Cloudy
7:53 AM 71.1 °F - 62.1 °F 73% 30.13 in 10.0 mi Calm Calm - N/A   Partly Cloudy
8:53 AM 73.9 °F - 63.0 °F 68% 30.14 in 10.0 mi SE 5.8 mph - N/A   Partly Cloudy
9:53 AM 78.1 °F - 64.0 °F 62% 30.15 in 10.0 mi SSE 5.8 mph - N/A   Mostly Cloudy
10:53 AM 80.1 °F 81.9 °F 64.9 °F 60% 30.14 in 10.0 mi South 5.8 mph - N/A   Mostly Cloudy
11:53 AM 82.9 °F 84.4 °F 64.0 °F 53% 30.13 in 10.0 mi SSE 9.2 mph - N/A   Mostly Cloudy
12:53 PM 84.0 °F 85.4 °F 64.0 °F 51% 30.11 in 10.0 mi ESE 8.1 mph - N/A   Mostly Cloudy
1:53 PM 84.0 °F 85.4 °F 64.0 °F 51% 30.09 in 10.0 mi SSE 6.9 mph - N/A   Mostly Cloudy
2:53 PM 84.9 °F 86.1 °F 64.0 °F 49% 30.07 in 10.0 mi SE 8.1 mph - N/A   Mostly Cloudy
3:53 PM 86.0 °F 87.6 °F 64.9 °F 49% 30.06 in 10.0 mi Calm Calm - N/A   Scattered Clouds
4:53 PM 84.0 °F 85.4 °F 64.0 °F 51% 30.06 in 10.0 mi East 5.8 mph - N/A   Scattered Clouds
5:53 PM 82.9 °F 84.6 °F 64.9 °F 54% 30.06 in 10.0 mi East 4.6 mph - N/A   Scattered Clouds
6:53 PM 80.1 °F 82.1 °F 66.0 °F 62% 30.07 in 10.0 mi Calm Calm - N/A   Clear
7:53 PM 78.1 °F - 66.0 °F 66% 30.08 in 10.0 mi Calm Calm - N/A   Clear
8:53 PM 77.0 °F - 66.0 °F 69% 30.09 in 10.0 mi Calm Calm - N/A   Clear
9:53 PM 73.0 °F - 66.0 °F 79% 30.10 in 10.0 mi NNE 4.6 mph - N/A   Clear
10:53 PM 72.0 °F - 66.9 °F 84% 30.10 in 10.0 mi Calm Calm - N/A   Clear
11:53 PM 72.0 °F - 66.0 °F 81% 30.09 in 10.0 mi Calm Calm - N/A   Clear